Location: *
(44.1392°N, 4.8079°E)
Time: 08:20:29
(UTC+00:00)

Cosmos 540 Rocket - Pass Details

Date: 21 June 2021
Orbit: 739 x 754 km, 74.1° (Epoch: 02 August)

Event Time Altitude Azimuth Distance (km) Brightness Sun altitude
Exits shadow 01:12:18 34° 233° (SW) 1,196 4.0 -19.4°
Maximum altitude 01:14:16 56° 294° (WNW) 876 3.7 -19.2°
Drops below altitude 10° 01:19:18 10° 13° (NNE) 2,261 7.1 -18.9°
Sets 01:21:43 0° 18° (NNE) 3,190 8.4 -18.7°
